Home   Weather   The Settlement   Past weeks

Flag for Christmas Island Past Weather in The Settlement, Christmas Island — Yesterday and Last 2 Weeks

Now
79 °F

Mostly cloudy.


Feels Like: 82 °F
Forecast: 77 / 81 °F
Wind: 13 mph from Southeast

Location: Christmas Island Aerodrome

Current Time: May 1, 2017 at 6:07:06 am

Latest Report: May 1, 2017 at 5:30 am


Visibility: N/A

Pressure: 29.92 "Hg

Humidity: 84%

Dew Point: 73 °F

Location of The SettlementLocation

Past Weather in The Settlement — Graph

°F

The Settlement Temperature Yesterday

Maximum temperature yesterday: 82 °F (at 10:30 am)
Minimum temperature yesterday: 73 °F (at 2:15 am)
Average temperature yesterday: 78 °F

High & Low Weather Summary for the Past Weeks

 TemperatureHumidityPressure
High84 °F (Apr 16, 12:00 pm)100% (Apr 20, 6:30 pm)30.01 "Hg (Apr 20, 6:30 pm)
Low72 °F (Apr 23, 2:30 am)66% (Apr 16, 11:00 am)29.83 "Hg (Apr 24, 3:00 pm)
Average78 °F87%29.92 "Hg
* Reported Apr 16 5:00 am — May 1 5:00 am, The Settlement, Weather by CustomWeather, © 2017

Note: Actual official high and low records may vary slightly from our data, if they occured in-between our weather recording intervals... More about our weather records

Advertising

The Settlement Weather History for the Previous 24 Hours

Scroll right to see more
 ConditionsComfort  
Time TempWeatherWind HumidityBarometerVisibility
5:00 am
Mon, May 1
79 °FMostly cloudy.10 mph84%29.92 "HgN/A
4:30 am77 °FOvercast.10 mph94%29.92 "Hg6 mi
4:00 am77 °FMostly cloudy.10 mph94%29.92 "HgN/A
3:30 am79 °FMostly cloudy.13 mph84%29.92 "HgN/A
3:00 am79 °FOvercast.14 mph84%29.92 "HgN/A
2:30 am79 °FMostly cloudy.13 mph89%29.92 "HgN/A
2:00 am79 °FOvercast.13 mph84%29.92 "HgN/A
1:30 am77 °FPassing clouds.10 mph89%29.92 "HgN/A
1:00 am79 °FPassing clouds.13 mph84%29.95 "HgN/A
12:30 am77 °FPassing clouds.9 mph89%29.95 "HgN/A
12:00 am79 °FPassing clouds.10 mph84%29.95 "HgN/A
11:30 pm
Sun, Apr 30
79 °FPassing clouds.10 mph84%29.95 "HgN/A
11:00 pm79 °FPartly cloudy.13 mph89%29.95 "HgN/A
10:37 pm79 °FPassing clouds.13 mph89%29.98 "HgN/A
10:00 pm79 °FPartly cloudy.10 mph84%29.98 "HgN/A
9:38 pm79 °FPassing clouds.13 mph84%29.98 "HgN/A
9:12 pm79 °FPassing clouds.12 mph84%29.98 "HgN/A
9:00 pm79 °FPartly cloudy.13 mph84%29.98 "HgN/A
8:30 pm79 °FMostly cloudy.10 mph89%29.98 "HgN/A
8:00 pm79 °FMostly cloudy.9 mph94%29.98 "HgN/A
7:00 pm77 °FMostly cloudy.10 mph94%29.95 "HgN/A
6:40 pm77 °FPassing clouds.10 mph94%29.95 "HgN/A
6:05 pm77 °FPartly cloudy.10 mph89%29.95 "HgN/A
5:30 pm77 °FPartly sunny.10 mph94%29.92 "HgN/A
5:03 pm77 °FPartly sunny.8 mph94%29.92 "HgN/A
4:30 pm77 °FMostly cloudy.12 mph94%29.92 "HgN/A
4:00 pm79 °FMostly cloudy.10 mph89%29.92 "HgN/A
3:30 pm81 °FPartly sunny.9 mph84%29.92 "HgN/A
3:00 pm79 °FSprinkles. Cloudy.9 mph89%29.92 "HgN/A
2:37 pm79 °FRain showers. Mostly cloudy.8 mph94%29.92 "HgN/A
2:24 pm79 °FRain showers. Cloudy.10 mph94%29.92 "Hg4 mi
2:00 pm81 °FSprinkles. Mostly cloudy.12 mph89%29.92 "HgN/A
1:30 pm79 °FMostly cloudy.10 mph94%29.92 "HgN/A
1:12 pm79 °FRain showers. Cloudy.12 mph94%29.92 "HgN/A
1:00 pm77 °FMostly cloudy.8 mph94%29.92 "Hg3 mi
12:37 pm75 °FRain showers. Cloudy.15 mph89%29.95 "Hg4 mi
12:00 pm79 °FBroken clouds.9 mph89%29.95 "HgN/A
11:30 am75 °FMore clouds than sun.5 mph94%29.95 "Hg4 mi
11:25 am75 °FCloudy.5 mph94%29.95 "Hg4 mi
11:01 am75 °FCloudy.9 mph94%29.98 "Hg2 mi
10:30 am82 °FPartly sunny.9 mph79%29.95 "HgN/A
10:00 am79 °FOvercast.7 mph84%29.98 "HgN/A
9:30 am77 °FBroken clouds.9 mph89%29.98 "HgN/A
9:00 am79 °FLight rain. Mostly cloudy.13 mph89%29.98 "HgN/A
8:30 am79 °FCloudy.12 mph89%29.98 "HgN/A
8:00 am79 °FPartly sunny.10 mph89%29.95 "HgN/A
7:00 am79 °FBroken clouds.9 mph89%29.95 "HgN/A
6:30 am77 °FPartly sunny.9 mph94%29.95 "HgN/A
6:00 am77 °FPassing clouds.9 mph94%29.92 "HgN/A
Weather by CustomWeather, © 2017

See weather overviewHow to use our weather pages